Lid_Strength_Index
2 2 2 2 2 2 2 2 3 3 3 3 3 3 3 3 3 6 9 7 4 1 -0 5 6 8 9 10 9 9 14 15 12 11 10 8 10 10 8 9 9 9 9 7 5
2 2 2 2 2 2 2 2 2 3 3 3 3 3 4 3 6 9 4 2 -0 -0 6 6 9 9 10 11 10 11 14 13 10 9 9 9 10 9 9 10 10 10 8 7 7
2 2 3 2 2 2 3 3 3 3 3 3 3 4 3 4 9 6 -0 1 -0 -1 7 7 9 10 13 11 11 13 14 12 9 8 9 9 9 8 9 10 10 10 9 8 6
3 2 3 3 3 3 3 3 3 3 3 3 4 4 3 6 12 7 -2 -1 -1 1 8 9 8 12 13 13 11 13 10 10 10 9 10 9 8 8 9 8 7 8 8 7 8
3 3 3 3 3 3 3 3 3 3 3 4 4 3 7 12 11 4 -1 -1 4 8 8 7 9 12 14 13 12 13 12 11 10 11 11 9 10 9 9 7 6 8 8 7 7
3 3 3 3 3 3 3 3 3 3 3 3 3 3 8 16 10 2 1 4 6 7 7 7 9 10 12 13 13 12 12 11 11 11 10 10 10 10 9 7 7 8 9 8 7
3 4 4 4 3 3 3 3 3 2 3 3 3 3 8 13 6 3 4 7 6 5 6 6 6 9 11 12 12 12 13 12 12 11 11 11 12 11 9 8 8 7 9 9 8
4 4 4 4 4 3 3 3 3 2 2 2 3 6 12 8 6 4 6 6 5 5 5 5 7 10 11 11 12 14 15 16 13 12 10 11 15 10 9 9 9 8 8 8 9
5 5 5 5 4 4 4 4 3 3 2 2 7 9 9 3 5 4 5 6 5 5 5 4 9 11 11 14 16 15 18 17 14 11 11 13 14 10 9 9 10 9 9 8 9
5 5 5 5 5 5 5 3 3 3 3 3 4 10 7 7 4 4 6 6 6 7 8 9 11 13 14 15 18 17 17 16 15 12 13 13 13 11 10 10 10 10 9 9 8
5 6 6 5 5 5 7 8 9 10 7 9 9 10 7 4 3 7 6 7 7 9 12 12 13 15 13 13 13 13 14 15 13 11 13 13 13 11 10 11 11 10 10 9 9
5 5 6 6 6 6 8 11 9 8 11 7 7 7 6 5 8 6 6 9 10 13 12 13 15 12 12 12 13 13 15 15 13 11 13 13 13 12 11 11 10 10 9 9 9
5 5 5 6 6 9 10 8 7 8 12 10 8 8 7 7 8 7 9 10 12 13 13 15 12 10 11 12 13 14 15 15 14 12 12 13 14 13 11 11 10 9 9 9 9
5 5 6 6 9 10 10 8 8 8 15 12 10 8 7 7 9 5 7 9 11 13 13 14 11 12 13 13 13 16 12 12 12 14 17 13 17 13 12 11 11 10 9 9 8
5 5 5 6 11 12 9 9 9 9 20 10 10 7 7 9 10 9 7 9 11 12 13 13 13 13 14 13 12 14 11 11 12 14 16 15 19 15 12 12 11 9 9 8 8
5 5 6 8 10 9 8 9 8 14 19 11 10 11 11 11 11 10 9 9 9 12 13 12 11 11 12 11 11 10 12 13 14 16 20 15 16 16 14 12 11 9 9 8 7
5 5 6 7 11 9 9 9 15 18 12 13 12 11 12 13 12 11 12 13 14 16 16 13 12 11 10 13 11 13 15 19 21 20 18 15 17 15 12 9 10 9 7 7 8
5 6 7 7 9 9 8 12 19 14 13 11 12 12 13 13 13 12 13 15 13 14 16 18 17 12 10 12 14 14 15 18 22 21 18 15 18 15 10 9 7 7 7 7 8
5 8 9 7 7 8 11 16 17 12 12 13 13 14 14 13 13 14 14 14 13 13 16 17 16 11 10 10 11 14 16 13 17 18 21 18 15 12 9 8 8 8 7 7 7
8 11 9 6 7 8 14 15 13 10 11 11 15 13 16 15 15 15 15 12 12 11 13 14 17 13 11 10 11 12 11 16 18 23 23 19 17 16 12 10 9 8 8 8 7
10 10 7 6 6 10 15 14 10 9 9 11 13 14 14 14 14 14 14 11 10 12 11 13 15 15 13 14 15 14 15 16 16 17 21 21 18 12 11 10 9 8 7 7 7
11 11 6 6 9 12 12 11 9 9 8 9 10 12 13 13 14 13 13 11 10 11 14 13 14 17 15 14 11 13 14 14 18 18 16 17 17 9 9 10 8 8 7 6 5
12 12 7 7 13 14 11 10 8 9 9 11 11 10 11 13 15 13 12 10 10 11 12 12 16 19 18 16 13 14 12 12 13 15 17 18 16 9 8 8 8 8 7 6 6
11 13 11 11 11 13 11 11 11 8 8 9 10 11 12 13 12 14 14 11 10 11 8 9 15 16 18 16 16 16 12 12 13 19 16 16 14 11 9 10 9 8 7 6 6
10 11 11 14 13 12 11 10 11 11 8 9 10 11 13 15 15 15 13 13 11 10 11 13 17 16 15 14 14 13 13 12 14 13 16 13 13 11 10 10 9 7 7 7 6
11 11 10 11 9 10 10 10 11 10 10 11 11 11 11 13 13 15 13 14 14 12 14 15 17 16 16 12 12 13 12 12 12 12 12 12 12 9 9 8 8 8 7 8 7
9 9 8 10 10 11 10 10 10 9 9 9 10 11 12 11 10 11 11 12 13 14 15 16 17 18 18 13 13 16 13 13 12 11 12 15 12 10 10 9 9 8 8 8 8